Tracking 32214 objects as of 19-Nov-2025
HD Live streaming from Space Station
objects crossing your sky now

STARLINK-31615

Track STARLINK-31615 now!
10-day predictions
STARLINK-31615 is classified as:


NORAD ID: 59413
Int'l Code: 2024-064R
Perigee: 489.2 km
Apogee: 491.1 km
Inclination: 43.0 °
Period: 94.3 minutes
Semi major axis: 6861 km
RCS: Unknown
Launch date: April 5, 2024
Source: United States (US)
Launch site: AIR FORCE EASTERN TEST RANGE (AFETR)
Your satellite tracking list
Your tracking list is empty




NASA's NSSDC Master Catalog

Two Line Element Set (TLE):
1 59413U 24064R   25323.24278765  .00003098  00000-0  12201-3 0  9993
2 59413  43.0058 313.0384 0001388 262.7263  97.3431 15.27588587 92413
Source of the keplerian elements: AFSPC